EW9060 Weather Reports


time (UTC)temp
F
wind
direction
speed
knots
gust
knots
rain 1hr
in
rain 24hr
in
rain mn
in
humidity
%
barometer
mb
20260901083029 60 112 2.6 8.7 0.00 0.00 0.00 77 1013.4
20260901081526 60 115 3.5 10.4 0.00 0.00 0.00 77 1013.3
20260901080024 61 136 0.9 11.3 0.00 0.00 0.00 77 1013.3
20260901074521 61 161 3.5 13.0 0.00 0.00 0.00 78 1013.1
20260901073025 61 175 5.2 12.2 0.00 0.00 0.00 77 1012.9
20260901071525 61 154 3.5 14.8 0.00 0.00 0.00 77 1012.9
20260901070016 61 202 4.3 9.6 0.00 0.00 0.00 76 1012.8
20260901064512 61 198 1.7 13.0 0.00 0.00 0.00 75 1012.8
20260901063020 61 167 3.5 10.4 0.00 0.00 0.00 75 1012.8
20260901061511 61 155 3.5 13.9 0.00 0.00 0.00 75 1012.8
20260901060014 61 158 3.5 12.2 0.00 0.00 0.00 74 1012.7
20260901054509 61 143 2.6 13.9 0.00 0.00 0.00 74 1012.7
20260901053009 61 172 5.2 13.0 0.00 0.00 0.00 73 1012.8
20260901051508 62 159 3.5 11.3 0.00 0.00 0.00 73 1012.7
20260901050008 62 197 4.3 14.8 0.00 0.00 0.00 73 1012.6
20260901044508 62 157 5.2 15.6 0.00 0.00 0.00 72 1012.6
20260901043005 62 173 4.3 13.0 0.00 0.00 0.00 72 1012.5
20260901041505 63 153 5.2 16.5 0.00 0.00 0.00 72 1012.4
20260901040012 63 150 4.3 13.9 0.00 0.00 0.00 71 1012.2
20260901034504 63 197 3.5 11.3 0.00 0.00 0.00 70 1012.0
20260901033003 64 138 5.2 15.6 0.00 0.00 0.00 69 1011.8
20260901031504 64 169 5.2 13.0 0.00 0.00 0.00 68 1011.7
20260901030003 65 269 1.7 10.4 0.00 0.00 0.00 67 1011.5
20260901024501 66 155 5.2 16.5 0.00 0.00 0.00 65 1011.4
20260901023000 67 153 2.6 13.0 0.00 0.00 0.00 64 1011.3
20260901021600 68 11 2.6 11.3 0.00 0.00 0.00 62 1011.3
20260901014602 71 49 7.0 15.6 0.00 0.00 0.00 58 1011.3
20260901013059 72 16 4.3 12.2 0.00 0.00 0.00 55 1011.2
20260901011605 73 16 6.1 19.1 0.00 0.00 0.00 51 1011.2
20260901010058 74 249 2.6 13.9 0.00 0.00 0.00 49 1011.1
20260901004603 75 176 5.2 12.2 0.00 0.00 0.00 49 1011.1
20260901003100 76 173 7.0 13.9 0.00 0.00 0.00 49 1011.2
20260901001555 77 190 4.3 13.0 0.00 0.00 0.00 48 1011.2
20260901000055 77 149 3.5 10.4 0.00 0.00 0.00 49 1011.1
20260831234554 77 92 3.5 13.9 0.00 0.00 0.00 49 1011.3
20260831233054 77 134 3.5 13.9 0.00 0.00 0.00 49 1011.4
20260831231559 77 202 4.3 11.3 0.00 0.00 0.00 48 1011.5
20260831230055 77 125 2.6 10.4 0.00 0.00 0.00 47 1011.6
20260831224552 77 146 4.3 10.4 0.00 0.00 0.00 46 1011.8
20260831223052 77 198 4.3 13.9 0.00 0.00 0.00 46 1011.9
20260831221551 78 271 4.3 14.8 0.00 0.00 0.00 46 1012.2
20260831220051 78 205 1.7 12.2 0.00 0.00 0.00 46 1012.3
20260831214617 77 157 2.6 10.4 0.00 0.00 0.00 47 1012.4
20260831213046 76 146 5.2 13.9 0.00 0.00 0.00 47 1012.5
20260831211546 77 133 2.6 12.2 0.00 0.00 0.00 49 1012.6
20260831210044 77 171 1.7 13.0 0.00 0.00 0.00 48 1012.7
20260831204540 76 92 2.6 9.6 0.00 0.00 0.00 50 1012.8
20260831203036 74 46 2.6 11.3 0.00 0.00 0.00 52 1012.8
20260831201538 73 46 3.5 13.0 0.00 0.00 0.00 53 1012.9
20260831200040 73 36 2.6 8.7 0.00 0.00 0.00 55 1013.1
20260831194527 72 17 4.3 11.3 0.00 0.00 0.00 56 1013.2
20260831193033 71 15 3.5 11.3 0.00 0.00 0.00 56 1013.6
20260831191527 71 19 3.5 12.2 0.00 0.00 0.00 58 1013.6
20260831190031 70 14 3.5 12.2 0.00 0.00 0.00 60 1013.6
20260831184521 69 14 4.3 11.3 0.00 0.00 0.00 62 1013.5
20260831183014 68 12 5.2 12.2 0.00 0.00 0.00 63 1013.6
20260831181513 67 13 2.6 13.0 0.00 0.00 0.00 64 1013.6
20260831180010 67 13 2.6 10.4 0.00 0.00 0.00 66 1013.5
20260831174510 66 12 4.3 8.7 0.00 0.00 0.00 66 1013.6
20260831173008 65 12 5.2 11.3 0.00 0.00 0.00 68 1013.7
20260831171507 64 12 2.6 10.4 0.00 0.00 0.00 70 1013.6
20260831170006 63 13 2.6 11.3 0.00 0.00 0.00 72 1013.4
20260831164504 62 13 2.6 10.4 0.00 0.00 0.00 75 1013.4
20260831163059 61 13 1.7 11.3 0.00 0.00 0.00 77 1013.3
20260831161556 60 12 4.3 9.6 0.00 0.00 0.00 78 1013.2
20260831160055 60 12 2.6 9.6 0.00 0.00 0.00 78 1013.2
20260831154606 59 12 2.6 10.4 0.00 0.00 0.00 79 1013.2
20260831153053 59 12 1.7 9.6 0.00 0.00 0.00 79 1013.1
20260831151550 59 13 0.0 10.4 0.00 0.00 0.00 79 1013.0
20260831150048 59 13 3.5 8.7 0.00 0.00 0.00 79 1012.8
20260831144548 59 15 2.6 8.7 0.00 0.00 0.00 79 1012.7
20260831143042 59 14 1.7 10.4 0.00 0.00 0.00 80 1012.6
20260831141539 58 156 2.6 8.7 0.00 0.00 0.00 79 1012.3
20260831140041 58 163 2.6 12.2 0.00 0.00 0.00 78 1012.1
20260831134535 58 150 3.5 9.6 0.00 0.00 0.00 78 1011.9
20260831133035 59 144 2.6 9.6 0.00 0.00 0.00 78 1011.8
20260831131541 59 209 1.7 12.2 0.00 0.00 0.00 78 1011.7
20260831130036 59 155 3.5 12.2 0.00 0.00 0.00 77 1011.5
20260831124531 59 133 2.6 10.4 0.00 0.00 0.00 77 1011.4
20260831123024 59 148 1.7 9.6 0.00 0.00 0.00 77 1011.3
20260831121523 59 83 0.9 7.0 0.00 0.00 0.00 77 1011.3
20260831120029 59 140 2.6 7.8 0.00 0.00 0.00 77 1011.4
20260831114517 60 177 2.6 7.0 0.00 0.00 0.00 76 1011.2
20260831113015 60 210 1.7 7.8 0.00 0.00 0.00 75 1011.2
20260831111517 60 160 2.6 10.4 0.00 0.00 0.00 74 1011.0
20260831110013 60 156 1.7 8.7 0.00 0.00 0.00 74 1011.2
20260831104510 61 163 2.6 7.8 0.00 0.00 0.00 73 1011.1
20260831103008 61 134 2.6 8.7 0.00 0.00 0.00 72 1011.2
20260831101507 61 151 1.7 8.7 0.00 0.00 0.00 72 1011.0
20260831100006 62 101 1.7 9.6 0.00 0.00 0.00 72 1011.0
20260831094504 62 150 1.7 8.7 0.00 0.00 0.00 71 1010.9
20260831093000 62 148 0.9 7.8 0.00 0.00 0.00 70 1010.9
20260831091600 63 189 1.7 7.8 0.00 0.00 0.00 69 1011.0
20260831090107 63 11 1.7 7.0 0.00 0.00 0.00 68 1011.0
20260831084557 63 11 1.7 7.8 0.00 0.00 0.00 67 1011.0